User: anonymous   Login
Location: Muenchen
(48.1800°N, 11.5800°E)
Time: 11:08:31
(UTC+02:00)
Language:

Iridium 37 - Orbit

View from above orbital plane
View from above orbital plane
View from above satellite
View from above satellite

Ground track
Ground track

The orbit data is extracted from the following two-line orbital elements,

1 24968U 97056D   17086.82950771 +.00000225 +00000-0 +73345-4 0  9992
2 24968 086.4006 352.8997 0002185 082.2646 277.8798 14.34224439020660
Epoch (UTC): 27 March 2017 19:54:29
Eccentricity: 0.0002185
inclination: 86.4006°
perigee height: 776 km
apogee height: 779 km
right ascension of ascending node: 352.8997°
argument of perigee: 82.2646°
revolutions per day: 14.34224439
mean anomaly at epoch: 277.8798°
orbit number at epoch: 2066

The dashed part of the orbit path shows where the satellite is in the earth's shadow,  

DLR